GFSFLT1_con_3kmhel_105.txt.gz
Helicity
79 105 121 136 149 148 161 160 143 133 149 158 178 201 232 226 210 183 192 200 186 179 180 198 183 174 183 203 176 141 120 119
76 93 122 141 141 178 211 189 169 123 117 157 204 221 246 246 207 161 191 213 183 181 219 220 196 189 171 198 203 174 166 136
139 140 121 120 147 163 211 237 204 182 122 140 182 225 169 226 241 181 174 193 204 185 228 232 224 212 181 187 202 220 186 188
121 127 118 120 138 176 186 196 240 207 190 127 155 145 137 149 209 229 189 181 221 225 220 248 251 233 204 207 200 206 223 184
86 97 100 67 69 91 107 128 165 195 168 143 130 198 195 205 253 244 202 192 193 211 224 242 242 238 224 208 184 208 229 200
54 53 41 28 25 37 72 92 116 160 136 121 136 139 158 163 163 149 199 227 240 216 221 247 249 262 220 211 196 215 241 246
55 37 13 15 21 56 41 85 70 124 179 76 98 108 101 129 137 182 225 238 219 246 260 254 258 250 230 198 205 199 232 234
37 30 31 24 58 123 129 108 65 95 133 135 110 77 89 78 84 152 249 316 317 206 241 241 266 300 264 176 218 208 218 231
45 59 92 79 47 81 187 152 98 153 119 164 113 67 125 110 89 103 178 237 292 237 238 209 307 338 254 157 164 199 228 225
44 100 80 53 65 59 139 159 125 180 161 186 92 109 127 162 148 135 158 188 225 230 259 274 289 272 196 153 209 214 175 208
57 28 26 27 27 34 128 141 103 198 190 264 132 82 156 165 139 127 186 200 213 226 246 262 260 206 159 183 203 172 204 190
30 21 36 26 6 64 113 160 221 230 241 298 216 124 129 151 166 152 217 225 228 248 215 265 265 205 161 166 157 183 153 193
49 27 15 13 38 80 110 150 228 294 267 355 193 80 127 154 160 177 197 197 176 226 242 294 253 185 172 156 169 180 175 130
15 26 37 46 68 83 133 137 225 342 342 286 202 222 181 134 136 171 192 194 257 257 252 220 201 171 183 173 145 133 114 89
25 39 46 61 83 114 161 193 197 288 315 269 212 202 207 224 62 56 91 170 207 230 220 204 264 121 157 134 129 121 110 132
36 61 82 97 121 156 164 207 198 217 247 277 198 163 190 261 294 278 135 180 266 315 352 417 479 232 240 153 106 117 152 151
58 70 85 98 132 160 171 186 257 232 200 180 213 177 184 274 349 498 636 776 669 389 418 522 307 268 226 120 150 180 165 150
65 71 84 94 107 135 194 185 206 248 273 252 220 165 164 258 391 479 604 645 591 387 492 446 285 275 271 300 254 224 227 198
63 62 71 80 88 104 100 160 197 241 259 265 265 208 227 226 288 359 459 498 476 434 392 352 333 271 273 340 337 296 300 258

GFSFLT1_con_3kmhel_111.txt.gz
Helicity
170 141 132 137 156 128 132 160 181 199 166 164 120 99 108 118 116 135 127 141 106 142 170 117 142 182 162 149 122 153 99 106
164 115 119 127 145 153 144 116 121 154 187 224 201 119 133 144 143 158 186 201 160 175 192 164 182 181 184 231 187 183 147 144
148 145 133 143 142 142 146 148 126 105 118 172 233 284 215 123 182 178 171 203 195 216 225 214 185 246 189 261 256 231 197 207
151 128 131 127 130 138 147 154 144 141 132 119 130 118 165 262 148 161 203 183 192 203 213 213 196 216 243 272 258 241 234 245
141 123 105 93 84 84 99 109 116 113 122 123 152 152 183 200 141 147 141 164 188 171 217 222 223 239 243 305 250 225 191 237
101 84 95 84 78 65 56 67 67 85 100 117 118 138 168 165 210 291 163 157 137 169 188 254 238 267 246 287 270 246 217 207
95 91 73 59 46 31 24 36 60 75 98 105 111 110 128 155 183 266 249 203 165 152 161 209 250 253 262 277 238 232 228 198
88 73 80 74 61 51 59 77 66 82 98 119 134 126 135 152 157 166 265 283 217 182 145 184 251 245 245 254 243 297 145 182
85 71 53 54 41 44 48 51 70 85 96 98 106 106 123 144 143 149 157 223 201 70 103 198 221 211 241 225 224 331 314 163
79 50 18 22 27 38 53 50 59 66 74 93 117 108 123 99 94 126 91 136 184 130 100 184 176 215 200 210 210 196 264 243
-0 -8 12 10 39 48 67 63 60 71 66 79 52 79 123 129 106 85 71 90 145 150 105 170 183 211 208 196 212 202 215 218
-5 36 69 52 62 71 63 72 49 58 59 76 5 57 101 130 197 129 39 83 127 142 138 140 147 192 233 216 219 241 244 242
60 66 67 65 66 70 56 43 29 38 70 45 97 128 183 185 249 178 72 72 106 117 116 116 141 190 213 178 223 279 271 233
81 85 65 60 61 48 46 31 30 85 84 60 180 175 261 261 253 205 68 85 76 110 140 142 167 198 239 203 297 331 316 263
90 86 62 49 12 26 36 58 57 89 95 110 169 245 329 282 298 297 244 266 139 127 164 167 186 219 255 259 308 313 348 283
95 70 72 62 39 37 73 88 104 108 121 188 262 207 214 303 263 277 274 263 321 425 322 338 321 327 318 281 337 361 438 459
84 79 68 43 89 88 91 103 139 143 153 169 257 185 198 213 212 275 276 388 369 392 486 531 574 475 502 456 409 411 373 369
66 73 69 88 83 69 65 85 99 118 148 211 280 254 257 277 221 227 205 290 453 493 502 523 590 676 720 592 635 670 688 725
72 78 78 74 55 45 23 40 89 145 176 174 198 220 191 213 249 245 283 215 335 556 792 715 746 847 815 823 664 651 674 613

GFSFLT1_con_3kmhel_114.txt.gz
Helicity
250 283 346 349 223 143 142 150 166 182 173 165 118 96 98 92 108 135 152 142 110 187 180 223 190 191 205 244 230 195 200 190
265 263 223 246 182 182 158 122 108 111 162 217 267 238 199 143 126 118 140 167 153 151 213 281 280 242 166 192 261 263 242 189
218 238 261 194 154 128 143 168 150 124 124 149 165 177 173 204 240 237 139 153 197 213 208 270 295 299 216 155 288 370 304 205
279 271 194 120 99 79 115 126 136 121 106 98 107 139 169 197 151 160 208 200 186 232 232 280 343 324 312 229 236 340 357 274
352 273 187 102 112 81 76 80 84 91 95 91 103 82 81 120 164 245 291 154 142 186 221 268 338 354 278 247 243 288 324 304
293 200 111 81 89 84 65 64 59 62 66 64 60 72 72 74 90 142 165 243 289 199 257 232 299 278 266 269 248 269 301 334
156 97 79 94 87 54 29 33 44 45 46 52 46 37 46 54 58 60 88 97 219 240 291 293 289 242 208 264 248 265 253 315
121 111 133 102 60 50 43 48 40 39 32 34 47 52 55 58 72 72 52 58 112 196 184 235 345 321 256 233 269 269 242 269
146 132 121 82 60 35 10 22 23 40 46 46 47 50 52 76 92 99 93 80 74 166 289 190 196 220 177 198 204 295 271 251
137 102 37 13 2 -11 0 -9 18 44 58 55 62 70 79 87 90 89 107 91 87 111 212 189 193 223 180 164 266 219 274 274
86 38 6 -27 -27 -10 25 13 25 41 65 70 63 70 85 95 101 91 87 94 114 118 111 173 179 223 169 157 225 221 275 256
69 36 39 46 26 24 11 12 36 56 62 73 71 50 65 73 65 66 56 72 104 82 62 118 167 180 181 203 213 242 192 211
41 29 68 53 40 35 10 24 50 61 78 81 78 48 59 82 123 92 54 133 124 134 67 112 184 193 192 160 208 220 187 212
49 106 117 85 61 26 23 30 72 64 85 89 75 53 89 110 93 135 114 134 88 146 113 103 154 164 170 155 185 238 243 257
147 139 113 95 68 40 37 68 74 106 105 86 90 126 117 99 129 147 87 387 249 306 140 134 114 168 160 159 169 199 225 238
125 103 92 91 88 77 85 74 91 128 121 113 111 128 128 130 129 145 180 228 446 232 407 367 354 334 263 181 159 205 254 458
103 93 103 99 104 70 49 82 121 130 110 129 157 168 149 139 158 219 262 92 287 374 320 311 400 400 304 310 159 249 474 624
107 103 89 85 77 58 44 53 82 127 128 159 194 168 185 158 159 195 272 294 110 386 439 423 389 404 649 760 769 740 771 744
92 80 75 85 75 58 44 59 62 118 178 187 156 159 177 195 183 170 213 295 259 238 427 463 488 427 421 834 964 949 993 872

GFSFLT1_con_3kmhel_117.txt.gz
Helicity
458 572 560 499 382 302 264 213 203 179 174 168 160 155 149 140 118 103 118 120 122 158 147 130 169 234 264 259 236 243 234 257
541 621 615 533 419 389 297 222 197 113 110 132 158 177 171 145 133 180 134 82 145 156 180 200 172 182 188 329 294 242 257 268
462 449 504 382 303 281 252 230 173 109 61 79 72 94 90 113 123 154 220 152 135 145 193 207 213 254 244 271 390 334 297 331
534 501 474 433 331 227 205 179 118 65 61 40 50 60 61 50 75 85 155 187 207 254 109 161 191 209 214 193 259 371 307 358
617 544 447 364 226 133 139 96 72 70 52 33 31 -4 36 67 67 55 45 67 123 187 250 170 180 213 249 292 104 230 361 298
558 474 295 198 121 105 68 45 53 43 37 44 29 33 16 -4 9 61 72 44 37 77 170 239 184 231 266 298 330 294 308 319
416 293 216 129 101 91 57 53 25 23 22 31 38 41 36 30 34 8 2 37 30 21 52 143 243 167 236 303 320 334 254 222
233 135 157 147 49 28 21 1 -8 -23 -21 -5 2 15 28 26 28 35 49 17 8 44 41 53 170 245 187 237 296 273 240 253
129 51 26 27 18 -20 -33 -34 -37 -43 -44 -30 -15 11 6 21 21 20 33 42 51 55 61 78 103 212 249 185 192 217 257 267
182 -23 32 7 -18 -28 -48 -46 -38 -32 -20 -21 -6 8 26 23 31 25 40 46 71 71 76 97 96 155 254 215 194 199 225 222
55 18 -25 -31 -24 -21 -18 -39 -43 -29 -6 -1 10 39 53 56 50 42 47 74 91 103 103 95 122 149 231 199 214 225 283 222
39 22 22 -9 -37 -7 -10 -29 -34 -25 -2 17 38 62 74 82 77 66 76 95 92 73 73 108 117 129 206 200 172 170 190 205
50 31 -25 -57 -13 7 8 -12 -9 -4 26 40 58 77 81 90 82 66 57 49 45 54 22 35 143 119 161 172 180 188 173 223
-5 -20 -5 15 31 31 15 22 35 61 73 86 95 100 112 103 75 68 49 92 51 28 40 56 90 88 107 71 150 176 174 175
18 -4 41 52 46 34 32 48 70 95 115 128 126 122 120 73 85 91 118 126 126 98 134 141 131 141 71 66 127 157 127 149
64 66 64 65 63 63 74 66 97 138 149 166 181 156 120 107 116 93 116 201 205 170 307 274 254 156 176 109 139 107 107 192
98 100 109 105 108 71 41 64 91 123 147 175 214 166 174 145 143 184 226 293 306 182 386 465 299 459 303 246 176 128 250 285
112 118 97 95 73 63 72 72 75 90 144 170 173 173 142 180 197 178 234 268 247 209 225 504 514 386 658 544 465 620 564 570
124 112 106 81 70 77 77 76 72 73 103 128 120 131 136 150 174 179 160 161 272 253 257 307 353 399 411 668 758 665 687 741